Bilbao Airport

Airport
ICAO code: 
LEBB
Summary
ICAO Region: 
EUR
Territory: 
Location: 
Bilbao, Spain,
Coordinates: 
Aerial View: 
43° 18' 8.979" N, 2° 54' 40.019" W
Airport WX: 
Low Level Turbulence
Metar
Observation
LEBB 212200Z 06004KT 010V120 9999 BKN038 OVC045 06/M01 Q1034 NOSIG
Station
Bilbao / Sondica
Date/Time
2022-01-21 22:00:00
Wind direction
60°
Wind speed
04 kts
Lowest cloud amount
broken clouds
Temperature
6°C
Dew point
-1°C
Humidity
60%
QNH
1034 hPa
Weather condition
n/a

Description

International airport serving city of Bilbao.

Climatology

Temperate Marine climate/Oceanic climate (Köppen climate classification Cfb). Moderately cool summer and comparatively warm winter with a temperature range of only 14°C. Prevailing south-westerly winds from the Atlantic Ocean.

Runways

Designator Length Width Surface Rops
10/28 2000 45 ASP Yes/Yes
12/30 2600 45 ASP Yes/Yes
Airport map: 
Aerial View: 

Accidents and Serious Incidents at or in the vicinity of LEBB

SKYbrary Partners:

Safety knowledge contributed by: